Temp
50 50 49 49 49 49 49 48 49 49 49 48 47 46 46 45 45 43 41 39 38 38 37 36 36 36 35 34 33 33 31 30 28 30 30 31 30 31 32 32 33 33 33
50 49 49 47 48 48 48 49 48 49 48 48 47 46 46 45 44 42 40 40 38 37 36 35 36 39 35 34 32 31 30 29 28 26 28 28 28 30 30 29 32 35 34
49 49 48 49 48 49 49 49 49 48 47 47 46 46 46 45 44 41 40 39 37 37 36 35 36 35 33 31 31 30 29 31 28 26 26 28 28 29 29 30 30 31 33
49 48 48 48 49 49 49 46 45 47 46 46 46 46 46 45 44 43 41 38 37 37 36 36 35 34 34 32 31 29 29 27 26 25 25 26 26 29 28 26 26 29 29
48 48 47 47 48 47 44 46 46 45 46 46 45 45 44 42 44 41 39 38 36 35 35 35 34 36 38 34 31 29 27 26 25 24 24 24 24 24 24 26 24 26 27
47 47 48 46 45 44 43 44 42 44 44 43 43 42 41 44 42 41 40 36 36 34 34 33 34 38 37 38 38 35 30 26 24 22 23 22 23 23 24 23 23 23 23
46 46 45 44 42 43 44 44 43 43 43 42 42 41 40 40 40 40 39 35 34 35 33 34 33 35 34 32 35 35 33 33 31 26 22 23 22 24 25 23 24 24 24
42 42 42 42 43 44 44 43 42 42 42 41 40 40 39 40 39 39 38 34 33 33 33 33 32 32 31 30 29 28 28 29 29 29 26 26 26 27 26 27 26 25 27
40 41 42 44 44 43 42 41 41 40 40 40 40 39 39 37 38 38 36 31 31 31 33 32 31 30 33 35 29 27 27 28 32 33 33 31 32 33 32 27 23 22 20
40 41 43 44 43 41 41 40 40 40 39 39 38 38 36 33 36 37 36 28 29 30 30 31 35 31 33 34 29 26 23 27 27 27 28 29 31 29 31 29 26 20 21
41 41 43 43 42 42 41 40 39 39 37 34 33 32 33 33 32 36 37 30 30 29 30 29 31 34 35 35 34 26 25 28 26 26 26 27 27 27 27 28 28 25 21
40 40 41 42 42 42 39 39 36 33 31 30 28 31 30 31 34 34 35 36 33 28 30 30 30 33 35 35 34 32 31 28 24 23 22 22 23 23 26 28 28 28 27
38 37 37 37 36 35 33 32 31 30 26 29 29 29 31 31 30 34 34 35 35 29 31 32 32 33 34 33 34 33 30 26 22 18 20 22 22 25 27 26 27 28 28
33 32 32 31 32 31 31 31 30 28 27 30 29 30 30 31 29 29 29 29 31 31 30 31 30 30 30 30 29 31 31 26 24 22 21 21 21 21 22 23 22 23 22
32 31 30 29 29 30 30 30 30 30 30 30 31 30 29 30 33 33 33 29 29 30 30 23 23 26 26 26 26 27 27 25 22 20 18 19 19 20 21 22 21 21 18
30 29 28 27 26 28 29 29 33 34 35 35 35 33 33 35 35 36 36 36 35 33 29 27 26 26 25 27 26 26 26 25 24 22 19 19 19 19 20 20 20 19 18
27 28 26 26 26 25 25 25 22 28 32 32 33 32 33 33 33 35 35 34 34 34 30 29 28 27 26 26 26 26 25 25 25 22 22 19 18 19 17 19 19 18 18
26 25 23 23 22 22 21 22 22 22 20 22 27 29 29 29 29 31 33 33 30 32 31 30 29 28 27 26 26 26 26 25 22 21 19 18 16 17 16 17 18 15 16
24 23 22 19 19 20 20 20 20 20 20 20 21 22 22 24 26 28 30 28 28 29 31 31 29 29 29 28 27 27 26 24 23 19 20 17 14 17 16 17 16 12 12
22 21 19 20 19 18 18 17 18 17 17 17 16 16 18 17 16 17 18 18 21 27 30 31 31 31 30 28 27 26 25 24 22 20 19 19 15 16 18 17 15 13 17
18 18 15 17 16 15 14 14 14 14 13 13 13 14 14 14 14 15 16 16 17 17 21 31 31 30 29 29 27 26 25 24 24 23 21 20 15 16 18 19 18 15 16
15 14 14 13 13 11 10 12 11 10 10 9 10 11 12 12 13 13 14 14 15 17 19 19 31 30 29 29 28 27 26 25 25 24 22 21 18 18 18 18 17 13 15
13 6 8 10 8 6 5 6 7 6 6 6 7 8 9 9 10 11 11 13 13 14 16 17 19 22 28 30 31 30 27 26 27 26 24 23 20 19 20 18 17 13 12
8 1 6 4 1 3 -3 -4 -1 1 3 3 2 4 6 6 7 7 8 10 11 11 13 14 16 17 18 21 24 30 30 29 29 28 28 25 23 21 21 20 18 15 14
-1 -5 -5 -4 -10 -10 -10 -6 -8 -7 -3 -1 -1 1 3 3 5 4 6 8 9 8 10 12 13 14 16 17 20 23 24 29 29 28 28 27 25 23 21 20 19 17 12
0 -3 -4 -8 -11 -12 -13 -12 -10 -11 -7 -4 -3 -2 -1 -0 2 2 3 4 5 6 8 10 11 12 14 16 18 20 20 22 25 28 28 27 25 23 21 20 19 18 16
MSLP
1016.28 1017.12 1017.80 1018.38 1018.81 1019.38 1020.01 1020.62 1021.03 1021.48 1021.96 1022.61 1022.90 1023.55 1024.15 1024.64 1024.82 1025.10 1025.46 1025.79 1026.02 1026.26 1026.41 1026.50 1026.70 1026.85 1026.99 1027.31 1027.47 1027.76 1028.00 1028.25 1028.36 1027.91 1027.97 1027.89 1027.84 1027.62 1027.36 1026.99 1026.55 1026.06 1025.51
1015.97 1016.58 1017.52 1018.16 1018.79 1019.33 1019.81 1020.23 1020.70 1021.21 1021.81 1022.35 1022.68 1023.30 1024.07 1024.44 1024.47 1024.58 1024.95 1025.21 1025.47 1025.76 1025.85 1026.10 1026.18 1026.46 1026.67 1026.83 1027.10 1027.41 1027.68 1027.87 1028.14 1027.94 1027.80 1027.73 1027.46 1027.22 1027.00 1026.69 1026.08 1025.58 1025.02
1015.63 1016.33 1016.82 1017.52 1018.00 1018.57 1019.21 1019.90 1020.46 1021.11 1021.69 1022.04 1022.64 1023.33 1023.80 1024.12 1024.37 1024.49 1024.69 1024.82 1025.01 1025.08 1025.30 1025.54 1025.55 1025.96 1026.27 1026.48 1026.72 1027.04 1027.30 1027.53 1027.80 1027.95 1027.67 1027.44 1027.10 1026.88 1026.50 1026.14 1025.72 1025.17 1024.60
1015.61 1015.96 1016.57 1016.96 1017.51 1018.25 1019.10 1019.85 1020.43 1020.92 1021.37 1022.29 1022.79 1023.22 1023.51 1023.71 1023.89 1023.95 1023.98 1024.18 1024.31 1024.52 1024.72 1024.97 1025.22 1025.43 1025.53 1025.87 1026.34 1026.60 1026.86 1027.28 1027.55 1027.64 1027.45 1027.26 1027.01 1026.52 1026.37 1026.02 1025.17 1024.82 1024.05
1015.88 1016.52 1017.03 1017.46 1017.89 1018.55 1019.09 1019.62 1020.16 1020.69 1021.45 1021.63 1022.21 1022.78 1023.23 1023.56 1023.48 1023.49 1023.57 1023.78 1023.88 1023.99 1024.26 1024.41 1024.64 1024.80 1024.87 1025.23 1025.61 1026.02 1026.45 1026.83 1027.10 1027.22 1027.16 1026.99 1026.69 1026.46 1026.24 1025.81 1025.31 1024.38 1023.58
1015.36 1016.00 1016.62 1017.42 1018.06 1018.68 1019.36 1020.05 1020.69 1021.48 1021.86 1022.35 1023.03 1022.90 1022.79 1023.05 1022.90 1022.90 1023.03 1023.15 1023.16 1023.36 1023.70 1023.86 1024.07 1024.04 1024.26 1024.44 1024.72 1025.16 1025.76 1026.15 1026.47 1026.77 1026.73 1026.65 1026.39 1026.26 1025.90 1025.59 1025.02 1024.21 1023.00
1015.89 1016.35 1016.85 1017.46 1018.22 1018.76 1019.25 1019.75 1020.76 1021.56 1022.15 1022.63 1022.81 1022.77 1023.06 1022.77 1022.56 1022.35 1022.20 1022.37 1022.45 1022.58 1022.81 1023.12 1023.46 1023.60 1023.88 1024.22 1024.31 1024.65 1025.07 1025.31 1025.52 1025.95 1026.13 1026.16 1026.03 1025.73 1025.43 1024.96 1024.56 1024.02 1023.12
1016.36 1016.90 1017.44 1018.01 1018.73 1019.36 1020.08 1020.93 1021.75 1021.79 1021.44 1022.08 1022.68 1022.81 1022.82 1022.36 1022.13 1021.89 1021.72 1021.74 1021.78 1021.79 1022.02 1022.34 1022.75 1023.09 1023.43 1023.73 1024.06 1024.44 1024.71 1024.98 1025.15 1025.25 1025.35 1025.33 1025.36 1025.10 1024.90 1024.37 1023.99 1023.44 1022.78
1017.39 1017.83 1018.32 1018.65 1019.30 1020.05 1020.61 1021.27 1021.76 1022.11 1022.07 1022.38 1022.53 1022.57 1022.47 1021.97 1021.79 1021.53 1021.35 1021.37 1021.45 1021.38 1021.54 1021.87 1022.18 1022.56 1022.70 1022.98 1023.49 1023.95 1024.23 1024.37 1024.38 1024.33 1024.36 1024.46 1024.33 1024.10 1023.91 1023.80 1023.59 1023.18 1022.30
1018.55 1018.89 1019.21 1019.65 1020.26 1020.81 1021.41 1021.60 1021.74 1022.03 1022.16 1022.16 1022.23 1022.15 1021.94 1021.61 1021.37 1021.08 1021.05 1021.15 1021.29 1021.25 1021.31 1021.49 1021.71 1021.86 1022.12 1022.29 1022.71 1023.28 1023.65 1023.67 1023.88 1023.98 1024.13 1023.99 1023.80 1023.71 1023.41 1023.33 1023.18 1022.98 1022.48
1019.50 1019.80 1020.14 1020.44 1020.74 1020.90 1021.25 1021.57 1021.75 1021.74 1021.71 1021.86 1021.97 1021.64 1021.47 1021.31 1020.95 1020.63 1020.56 1020.68 1020.65 1020.72 1020.87 1020.98 1021.00 1021.15 1021.39 1021.60 1021.89 1022.38 1022.70 1022.99 1023.29 1023.53 1023.63 1023.53 1023.37 1023.17 1022.92 1022.68 1022.57 1022.56 1022.23
1020.34 1020.52 1020.70 1020.85 1020.95 1021.21 1021.49 1021.61 1021.71 1021.79 1021.85 1021.77 1021.68 1021.31 1020.95 1020.62 1020.39 1020.09 1019.95 1019.95 1019.93 1020.18 1020.12 1020.13 1020.17 1020.40 1020.66 1020.84 1021.13 1021.36 1021.88 1022.35 1022.71 1023.03 1023.25 1023.10 1022.92 1022.59 1022.21 1022.03 1021.89 1021.73 1021.51
1021.10 1021.37 1021.47 1021.49 1021.65 1021.78 1021.94 1021.98 1021.91 1021.79 1021.71 1021.57 1021.42 1021.06 1020.49 1020.09 1019.79 1019.53 1019.30 1019.16 1019.19 1019.42 1019.30 1019.10 1019.18 1019.59 1019.95 1020.08 1020.26 1020.52 1021.03 1021.51 1021.99 1022.47 1022.51 1022.35 1022.12 1021.73 1021.61 1021.55 1021.32 1021.07 1020.71
1021.91 1022.11 1022.21 1022.28 1022.24 1022.15 1022.07 1022.01 1021.98 1021.78 1021.65 1021.45 1021.15 1020.74 1020.14 1019.53 1019.26 1018.87 1018.56 1018.31 1018.28 1018.37 1018.40 1018.45 1018.50 1018.53 1018.66 1019.14 1019.48 1019.78 1020.00 1020.35 1020.87 1021.25 1021.50 1021.43 1021.37 1021.39 1021.21 1021.08 1021.08 1020.78 1020.45
1022.59 1022.82 1022.93 1022.95 1022.82 1022.61 1022.41 1022.27 1022.04 1021.75 1021.65 1021.28 1020.91 1020.48 1020.02 1018.99 1018.42 1018.06 1017.72 1017.45 1017.26 1017.10 1017.17 1017.56 1017.85 1017.97 1018.16 1018.26 1018.55 1018.78 1019.09 1019.48 1020.02 1020.29 1020.68 1020.80 1020.86 1020.89 1020.77 1020.65 1020.73 1020.57 1020.41
1023.41 1023.60 1023.68 1023.57 1023.39 1023.16 1022.78 1022.15 1021.94 1021.57 1021.30 1021.04 1020.65 1020.30 1019.40 1018.94 1018.05 1017.58 1017.11 1016.67 1016.16 1015.77 1016.06 1016.19 1016.44 1016.65 1016.74 1016.84 1017.12 1017.34 1017.72 1018.15 1018.58 1019.11 1019.55 1019.87 1020.07 1020.17 1020.23 1020.28 1020.38 1020.32 1020.19
1024.15 1024.23 1024.19 1024.11 1024.01 1023.78 1023.40 1022.88 1021.91 1021.26 1021.46 1021.10 1020.81 1020.39 1019.93 1019.03 1017.94 1017.17 1016.56 1016.00 1015.13 1014.96 1014.56 1014.14 1014.53 1015.08 1015.28 1015.62 1015.86 1016.10 1016.30 1016.56 1017.01 1017.80 1018.18 1018.70 1019.15 1019.42 1019.72 1019.76 1019.84 1019.93 1019.73
1024.61 1024.76 1024.82 1024.74 1024.57 1024.29 1023.95 1023.56 1023.07 1022.35 1021.31 1020.87 1020.97 1020.54 1019.84 1019.13 1018.24 1017.12 1016.10 1015.26 1014.33 1013.91 1013.48 1013.36 1013.41 1013.56 1013.87 1014.32 1014.63 1014.81 1015.05 1015.42 1016.04 1016.64 1017.17 1017.69 1018.30 1018.60 1019.03 1019.20 1019.31 1019.51 1019.43
1025.28 1025.33 1025.30 1025.13 1024.90 1024.69 1024.39 1024.05 1023.70 1023.24 1022.66 1021.94 1021.06 1020.49 1020.24 1019.56 1018.35 1017.27 1016.21 1015.35 1014.49 1013.56 1012.95 1012.53 1012.25 1012.23 1012.37 1012.79 1013.28 1013.64 1013.91 1014.34 1014.76 1015.56 1016.01 1016.70 1017.37 1017.79 1018.11 1018.37 1018.66 1018.90 1019.02
1025.93 1025.97 1025.78 1025.55 1025.36 1025.14 1024.91 1024.64 1024.25 1023.98 1023.43 1023.01 1022.37 1021.73 1020.81 1019.97 1018.87 1018.04 1017.52 1016.82 1015.62 1014.06 1012.60 1011.84 1011.31 1011.12 1011.27 1011.60 1012.09 1012.62 1013.06 1013.44 1013.86 1014.48 1014.93 1015.52 1016.20 1016.77 1017.09 1017.46 1017.89 1018.38 1018.50
1026.66 1026.52 1026.40 1026.09 1025.89 1025.76 1025.61 1025.36 1025.14 1024.75 1024.35 1023.79 1023.21 1022.62 1022.05 1021.23 1020.11 1019.24 1018.38 1017.52 1016.51 1015.18 1013.59 1010.49 1010.05 1010.09 1010.34 1010.65 1011.02 1011.59 1012.04 1012.38 1012.73 1013.14 1013.69 1014.34 1015.15 1015.79 1016.12 1016.50 1017.00 1017.52 1017.91
1027.25 1027.19 1026.95 1026.81 1026.70 1026.65 1026.59 1026.24 1025.96 1025.63 1025.14 1024.52 1023.80 1023.05 1022.37 1021.61 1020.79 1019.90 1019.02 1018.13 1017.14 1015.84 1014.43 1012.70 1009.68 1009.20 1009.22 1009.57 1010.02 1010.53 1010.91 1011.23 1011.57 1011.95 1012.46 1013.10 1013.91 1014.62 1015.20 1015.73 1016.25 1016.83 1017.34
1027.82 1027.98 1027.77 1027.56 1027.56 1027.40 1027.33 1027.04 1026.58 1026.22 1025.68 1025.15 1024.54 1023.69 1022.85 1022.12 1021.32 1020.47 1019.69 1018.61 1017.58 1016.32 1015.03 1013.65 1012.22 1010.87 1009.77 1009.20 1009.10 1009.36 1009.67 1009.94 1010.20 1010.66 1011.27 1011.97 1012.76 1013.53 1014.14 1014.73 1015.36 1016.22 1016.80
1028.37 1028.49 1028.40 1028.40 1028.44 1028.31 1028.13 1027.75 1027.30 1026.86 1026.26 1025.71 1025.09 1024.27 1023.46 1022.77 1021.83 1021.10 1020.17 1019.11 1018.07 1016.96 1015.83 1014.63 1013.62 1012.54 1011.31 1010.53 1009.66 1008.72 1008.71 1008.92 1009.32 1009.70 1010.14 1010.74 1011.53 1012.45 1013.17 1013.82 1014.45 1015.17 1015.94
1028.76 1028.90 1029.10 1029.25 1029.38 1029.27 1028.91 1028.45 1028.05 1027.53 1026.82 1026.19 1025.58 1024.76 1023.99 1023.27 1022.24 1021.46 1020.54 1019.55 1018.52 1017.50 1016.28 1015.25 1014.25 1013.27 1012.29 1011.53 1010.42 1009.59 1009.12 1008.61 1008.76 1009.01 1009.52 1010.03 1010.66 1011.44 1012.16 1012.85 1013.57 1014.41 1015.32
1029.18 1029.31 1029.38 1029.44 1029.49 1029.37 1029.41 1029.11 1028.48 1027.88 1027.24 1026.56 1025.97 1025.24 1024.43 1023.63 1022.65 1021.82 1020.90 1019.94 1018.96 1017.82 1016.66 1015.58 1014.64 1013.76 1012.84 1011.93 1011.15 1010.44 1009.83 1009.30 1009.01 1008.97 1009.24 1009.67 1010.25 1010.96 1011.61 1012.19 1012.84 1013.57 1014.34
Wind_Speed
8 7 7 7 8 9 10 10 10 11 11 8 7 6 6 5 5 5 6 6 6 5 4 5 6 5 4 3 3 3 3 3 3 2 2 2 3 4 7 7 8 8 7
9 10 9 7 9 10 9 11 11 11 8 6 7 7 5 6 6 7 7 6 7 7 7 6 7 4 5 5 3 5 3 3 3 5 2 2 4 4 6 8 8 8 8
8 8 9 10 12 12 11 10 10 8 6 6 8 7 6 6 5 6 7 7 7 7 7 7 7 6 5 4 4 4 3 3 3 3 3 2 3 2 5 7 7 8 8
8 10 12 13 12 11 9 7 7 7 10 8 6 5 6 3 6 7 7 7 7 7 7 7 6 7 7 6 5 5 4 3 3 3 3 4 3 3 4 6 8 7 9
9 8 6 5 6 5 7 7 8 8 7 5 6 6 1 3 5 7 6 7 7 7 6 7 7 8 10 8 4 5 4 3 3 3 4 3 4 4 5 4 8 9 9
10 9 7 6 6 6 7 6 6 4 5 5 3 2 3 5 9 11 10 7 8 7 8 6 6 9 9 11 12 10 9 5 4 2 2 4 6 5 3 5 7 9 8
3 4 6 7 8 8 10 11 9 7 5 3 3 2 6 6 11 12 12 6 7 9 9 8 6 5 7 5 7 9 10 11 8 4 5 5 4 4 4 6 8 8 9
7 8 8 10 10 10 9 8 7 3 4 3 3 5 7 7 10 11 12 7 7 8 9 9 7 7 7 7 6 5 6 5 6 5 7 7 7 7 7 6 7 9 8
9 10 10 11 11 10 8 6 3 1 2 2 4 5 7 7 9 12 9 5 6 7 7 6 7 7 11 13 6 7 6 6 7 11 13 14 14 13 10 4 5 7 8
10 10 11 11 9 7 4 2 1 2 4 3 5 6 7 8 10 13 8 3 5 4 5 6 13 10 13 13 8 7 7 7 4 4 4 7 9 8 11 5 5 6 7
9 8 8 6 5 4 3 1 3 4 4 5 5 6 7 7 8 13 11 5 6 5 6 6 6 15 15 15 14 8 9 6 5 5 5 5 6 6 5 5 5 5 6
6 6 5 4 4 3 1 3 4 4 5 6 5 7 5 6 9 11 12 16 10 6 7 6 6 15 17 16 12 15 16 8 4 4 4 6 5 5 5 5 5 6 7
6 6 5 5 4 4 3 5 4 4 3 5 4 6 8 5 6 12 12 14 16 8 7 10 13 15 17 13 17 16 12 5 5 3 6 6 4 5 4 4 4 7 8
6 6 5 6 6 5 4 3 4 4 4 5 6 7 8 8 5 5 6 6 10 9 10 9 8 9 11 9 7 11 8 7 7 7 6 4 2 2 2 2 2 4 4
7 7 7 5 5 5 4 4 4 5 5 7 6 6 8 11 9 11 11 6 7 10 8 3 4 6 7 8 8 8 7 6 6 5 4 4 4 2 3 1 2 2 2
7 5 4 4 4 5 6 7 6 10 12 13 15 12 10 15 23 24 23 23 22 17 7 7 9 8 10 10 10 10 9 10 8 7 6 5 5 4 3 2 2 2 3
6 6 5 6 6 6 7 7 11 8 13 15 18 20 22 25 28 27 24 23 27 21 11 9 10 9 10 9 9 9 10 9 9 7 7 6 6 5 3 3 3 2 3
6 7 4 5 5 5 5 6 6 9 12 10 12 19 21 27 29 30 28 24 11 9 8 8 10 9 9 9 9 9 8 7 7 7 6 6 6 5 4 4 4 3 2
6 5 5 3 3 5 5 6 6 8 9 10 11 10 13 26 27 25 27 10 12 10 8 9 9 8 8 9 8 8 8 7 7 6 7 7 6 6 5 4 4 4 3
6 9 6 5 5 5 6 6 7 7 8 9 9 11 12 15 12 12 11 11 13 13 10 10 9 11 10 8 7 7 7 7 7 7 7 7 6 7 6 6 5 4 4
4 5 6 5 5 6 6 6 7 7 7 8 8 9 15 12 11 11 11 11 12 12 18 11 8 8 8 7 7 7 8 7 8 8 8 8 7 7 7 6 5 5 4
5 6 5 5 5 5 6 6 6 7 7 8 9 10 15 9 9 10 11 11 12 12 13 15 9 8 8 7 8 8 8 9 8 8 8 8 8 7 6 6 5 4 4
4 4 5 4 5 5 5 6 6 7 7 8 9 9 9 9 10 10 12 11 12 12 12 13 13 12 6 3 6 8 9 9 9 9 9 9 8 7 8 7 6 5 4
3 3 4 4 2 4 3 4 4 7 8 7 8 8 9 10 9 12 11 11 11 12 12 11 11 14 13 10 7 5 7 7 6 8 12 9 8 9 7 7 8 7 5
2 3 2 2 2 3 4 5 4 4 6 6 8 8 9 10 10 10 11 11 11 12 13 12 10 15 15 17 11 11 11 4 8 8 7 8 9 11 9 8 9 8 4
2 2 1 2 2 3 3 4 4 4 6 6 7 8 8 9 9 10 10 12 12 13 14 11 13 17 18 12 13 13 10 9 6 2 5 6 7 6 7 8 12 9 8
Wind_Direction
166 176 179 180 176 168 172 165 166 162 170 169 162 152 166 179 177 180 198 198 203 216 211 206 213 202 211 203 189 187 197 174 237 260 228 251 266 272 288 291 292 286 279
172 161 173 154 158 158 163 171 170 170 169 157 155 162 176 180 191 196 201 200 204 210 216 203 220 203 212 199 193 212 209 196 203 270 244 253 242 262 273 288 290 295 288
148 165 156 170 173 180 176 177 171 160 152 151 153 171 176 197 222 218 210 209 213 215 210 206 215 198 221 209 210 212 209 222 207 231 274 257 275 273 293 290 282 290 287
171 173 185 188 187 183 176 158 151 148 151 164 176 169 193 224 237 228 218 224 222 221 213 211 202 201 212 210 209 214 204 209 212 234 265 276 268 288 285 296 303 299 301
174 193 213 179 183 164 147 149 145 152 166 155 145 175 236 265 247 241 240 237 228 223 211 208 207 211 224 205 185 211 189 199 216 242 270 274 283 291 287 293 295 305 302
179 186 168 163 143 139 118 121 105 91 91 118 97 48 315 252 267 263 248 233 224 202 208 206 209 217 221 222 220 206 191 186 207 207 249 270 277 269 263 281 294 315 320
146 137 129 120 115 124 126 120 115 118 109 89 16 314 272 277 270 273 263 228 213 212 199 195 200 208 208 209 216 197 202 214 215 192 237 247 255 248 278 286 292 294 295
95 93 100 106 109 112 101 86 46 45 90 72 276 264 266 266 267 281 281 240 222 212 198 193 191 199 202 188 187 205 214 221 233 237 221 243 242 258 249 270 288 293 288
80 87 96 106 101 93 87 88 99 99 317 239 245 262 265 276 274 284 281 232 226 219 199 190 193 202 209 206 188 213 222 232 240 257 243 242 255 276 288 296 299 307 304
86 89 89 83 82 89 116 130 118 219 241 234 249 246 271 278 284 282 261 197 228 217 210 210 214 203 211 208 198 200 220 233 220 246 256 262 264 267 284 266 279 286 299
86 84 87 98 116 116 103 194 227 248 257 261 268 273 270 261 278 284 259 205 220 218 214 211 215 218 217 215 208 195 211 209 224 227 246 256 265 263 261 255 248 257 277
65 67 63 50 45 50 334 310 300 297 284 281 280 284 261 265 264 279 267 228 220 209 218 221 221 220 222 220 216 211 221 221 209 228 241 255 256 259 257 254 265 266 254
61 49 39 32 25 8 333 309 308 299 272 282 277 284 286 271 270 270 263 246 234 226 229 228 217 221 228 223 220 216 219 209 206 208 234 246 230 237 255 262 275 287 288
52 36 24 17 358 354 338 318 304 296 294 284 282 282 284 283 265 257 250 244 242 233 238 238 230 218 198 207 211 226 217 203 210 223 228 235 252 236 230 222 259 299 297
46 35 25 18 6 346 332 301 300 275 254 289 289 279 291 290 283 253 247 243 225 225 222 190 195 209 217 215 217 220 214 207 211 209 208 220 233 223 241 214 242 292 280
42 24 9 359 352 345 338 328 315 302 308 300 293 285 294 279 287 290 284 269 251 226 209 213 229 224 221 221 218 218 214 212 215 210 210 215 226 219 230 236 226 234 284
41 21 12 10 1 354 348 339 330 335 337 341 341 334 326 317 318 316 317 311 286 257 240 221 221 217 220 220 221 218 218 208 204 206 205 204 211 213 191 227 237 246 277
35 25 13 357 351 349 341 335 331 333 333 339 345 340 344 341 335 319 310 315 298 281 250 236 226 217 220 218 219 218 215 203 193 202 195 196 194 191 192 220 224 225 250
26 18 359 336 342 348 344 345 339 334 331 326 332 337 342 341 334 339 338 309 303 295 289 260 227 225 215 212 215 215 210 205 196 186 197 192 191 183 206 212 217 215 207
28 16 1 5 359 358 357 347 348 341 335 337 331 333 335 338 340 343 342 335 336 314 276 262 243 236 220 205 202 205 208 207 197 194 199 192 184 187 200 198 196 208 217
24 9 358 4 9 6 355 348 342 338 338 332 328 329 331 331 330 334 333 333 335 323 326 264 245 211 204 204 195 202 209 210 208 199 193 192 175 187 197 193 191 195 210
34 13 6 8 359 4 350 342 335 338 331 330 328 327 332 333 331 332 332 332 330 327 332 336 286 215 204 197 198 203 209 212 206 199 191 183 178 186 179 185 182 184 190
50 19 5 11 357 351 344 338 337 336 328 328 326 327 332 333 329 334 330 330 331 331 332 340 342 349 345 247 209 211 209 209 206 194 187 179 174 176 180 182 177 172 184
30 32 19 12 352 348 332 320 328 333 326 327 325 325 328 326 327 327 329 326 331 330 331 335 334 339 344 340 338 253 219 210 194 196 187 177 175 172 175 175 177 176 173
53 34 33 344 344 327 332 322 315 315 320 326 324 322 322 320 323 326 326 325 329 328 328 330 331 334 341 329 340 358 356 244 190 183 181 173 170 172 175 180 175 166 146
44 26 355 355 354 347 332 315 312 307 320 318 318 315 317 316 319 324 325 327 328 323 324 325 325 329 331 332 341 345 349 1 23 161 165 170 164 166 169 177 177 173 164